Ludington, MI

7:12 AM EST on November 17, 2019 (GMT -0500)
Mason County

Weather History for KLDM - June, 2019

Change the Weather History Date:

Monday, June 10, 2019

  Actual Average Record
Temperature  
Mean Temperature 57 °F -  
Max Temperature 66 °F 73 °F 88 °F (2012)
Min Temperature 48 °F 49 °F 32 °F (1977)
Degree Days  
Heating Degree Days 8    
Growing Degree Days 7 (Base 50)    
Moisture  
Dew Point 52 °F    
Average Humidity 81    
Maximum Humidity 98    
Minimum Humidity 47    
Precipitation  
Precipitation 0.09 in - - ()
Sea Level Pressure  
Sea Level Pressure 30.00 in    
Wind  
Wind Speed 7 mph (NW)    
Max Wind Speed 17 mph    
Max Gust Speed 30 mph    
Visibility 8 miles    
Events Rain    
Averages and records for this station are not official NWS values.
T = Trace of Precipitation, MM = Missing Value Source: NWS Daily Summary

Daily Weather History Graph

Daily Weather History Graph

Search for Another Location

Airport or City:

Astronomy

Jun. 10, 2019 Rise Set
Actual Time 6:02 AM EDT 9:27 PM EDT
Civil Twilight 5:26 AM EDT 10:03 PM EDT
Nautical Twilight 4:39 AM EDT 10:50 PM EDT
Astronomical Twilight 3:40 AM EDT 11:50 PM EDT
Moon 2:01 PM EDT (6/10) 2:32 AM EDT (6/10)
Length of Visible Light 16h 36m
Length of Day
15h 24m
First Quarter, 55% of the Moon is Illuminated
Jun 10
First Quarter
Jun 17
Full
Jun 25
Last Quarter
Jul 2
New
Jul 9
First Quarter

Hourly Weather History & Observations

Time (EDT) Temp. Dew Point Humidity Pressure Visibility Wind Dir Wind Speed Gust Speed Precip Events Conditions
12:15 AM 65.3 °F 64.4 °F 97% 29.91 in 2.5 mi Calm Calm - N/A   Heavy Drizzle
12:38 AM 64.4 °F 63.5 °F 97% 29.91 in 2.0 mi NW 4.6 mph - N/A   Drizzle
12:56 AM 62.8 °F 62.1 °F 97% 29.91 in 2.5 mi NW 5.8 mph - 0.01 in   Heavy Drizzle
1:15 AM 62.1 °F 61.3 °F 97% 29.91 in 2.5 mi NW 5.8 mph - 0.01 in   Heavy Drizzle
1:16 AM 61.9 °F 61.2 °F 97% 29.91 in 2.5 mi NNW 5.8 mph - 0.01 in   Heavy Drizzle
1:35 AM 61.3 °F 60.8 °F 98% 29.90 in 2.5 mi North 4.6 mph - 0.02 in   Heavy Drizzle
1:59 AM 61.2 °F 60.4 °F 97% 29.91 in 7.0 mi NW 4.6 mph - 0.03 in   Overcast
2:17 AM 61.0 °F 60.3 °F 97% 29.90 in 10.0 mi NNW 4.6 mph - N/A   Overcast
2:35 AM 61.0 °F 60.3 °F 97% 29.90 in 7.0 mi NW 5.8 mph - N/A   Heavy Drizzle
2:36 AM 61.0 °F 60.3 °F 97% 29.90 in 7.0 mi NW 5.8 mph - N/A   Heavy Drizzle
2:55 AM 61.0 °F 60.3 °F 97% 29.89 in 10.0 mi NNW 5.8 mph - N/A   Overcast
2:56 AM 61.0 °F 60.3 °F 97% 29.89 in 10.0 mi NNW 4.6 mph - N/A   Overcast
3:15 AM 60.1 °F 59.4 °F 97% 29.89 in 10.0 mi North 9.2 mph - N/A   Overcast
3:20 AM 59.5 °F 58.8 °F 97% 29.88 in 7.0 mi North 11.5 mph - N/A   Overcast
3:38 AM 58.6 °F 58.1 °F 98% 29.89 in 2.0 mi NNW 5.8 mph - N/A   Overcast
3:56 AM 58.1 °F 57.4 °F 97% 29.89 in 1.8 mi NNW 5.8 mph - N/A   Overcast
4:15 AM 57.7 °F 57.2 °F 98% 29.88 in 4.0 mi NNE 3.5 mph - N/A   Overcast
4:35 AM 57.4 °F 56.7 °F 97% 29.88 in 4.0 mi North 3.5 mph - N/A   Overcast
4:36 AM 57.4 °F 56.7 °F 97% 29.88 in 4.0 mi North 3.5 mph - N/A   Overcast
4:59 AM 57.4 °F 56.7 °F 97% 29.88 in 2.0 mi Calm Calm - N/A   Overcast
5:17 AM 57.4 °F 56.7 °F 97% 29.88 in 5.0 mi NNW 3.5 mph - N/A   Overcast
5:35 AM 57.4 °F 56.7 °F 97% 29.89 in 5.0 mi NNW 4.6 mph - N/A   Overcast
5:55 AM 57.2 °F 56.3 °F 97% 29.90 in 2.5 mi NW 5.8 mph - N/A   Drizzle
6:15 AM 56.3 °F 55.6 °F 97% 29.91 in 2.5 mi NNW 6.9 mph - N/A   Drizzle
6:38 AM 54.5 °F 53.8 °F 97% 29.92 in 1.5 mi NNW 11.5 mph 20.7 mph N/A   Drizzle
6:56 AM 54.5 °F 53.8 °F 97% 29.94 in 1.5 mi NNW 13.8 mph 26.5 mph 0.01 in   Drizzle
7:15 AM 54.7 °F 53.8 °F 97% 29.95 in 1.5 mi NNW 12.7 mph 19.6 mph N/A Rain Rain
7:16 AM 54.7 °F 53.8 °F 97% 29.95 in 1.5 mi NNW 13.8 mph 19.6 mph N/A Rain Rain
7:35 AM 54.5 °F 53.6 °F 97% 29.95 in 1.2 mi NNW 12.7 mph 24.2 mph N/A Rain Rain
7:59 AM 54.0 °F 53.1 °F 97% 29.96 in 1.5 mi North 15.0 mph 24.2 mph N/A Rain Light Rain
8:17 AM 54.0 °F 53.1 °F 97% 29.97 in 1.5 mi NNW 12.7 mph 23.0 mph 0.01 in Rain Heavy Rain
8:35 AM 53.2 °F 52.3 °F 97% 29.97 in 1.5 mi NNW 16.1 mph 25.3 mph 0.01 in Rain Rain
8:36 AM 53.2 °F 52.2 °F 96% 29.97 in 1.5 mi NNW 15.0 mph 25.3 mph 0.01 in Rain Rain
8:55 AM 52.5 °F 51.6 °F 97% 29.99 in 1.5 mi NNW 12.7 mph 29.9 mph 0.01 in Rain Rain
9:15 AM 52.2 °F 51.3 °F 97% 29.99 in 1.5 mi NNW 11.5 mph 19.6 mph N/A Rain Heavy Rain
9:38 AM 51.8 °F 50.9 °F 97% 29.99 in 2.5 mi North 11.5 mph 20.7 mph 0.03 in Rain Heavy Rain
9:56 AM 52.3 °F 51.3 °F 96% 30.00 in 7.0 mi NNW 12.7 mph 18.4 mph 0.03 in Rain Rain
10:16 AM 51.8 °F 50.4 °F 95% 30.01 in 10.0 mi NNW 13.8 mph 24.2 mph N/A   Overcast
10:35 AM 51.8 °F 50.4 °F 95% 30.01 in 10.0 mi NNW 10.4 mph 20.7 mph N/A   Light Drizzle
10:59 AM 52.7 °F 50.7 °F 93% 30.02 in 10.0 mi NNW 10.4 mph 23.0 mph N/A Rain Rain
11:17 AM 52.7 °F 50.5 °F 92% 30.02 in 7.0 mi NNW 9.2 mph 16.1 mph N/A   Light Drizzle
11:35 AM 53.6 °F 50.4 °F 89% 30.02 in 10.0 mi NNW 13.8 mph 20.7 mph N/A   Overcast
11:36 AM 53.6 °F 50.4 °F 89% 30.03 in 10.0 mi NNW 12.7 mph 20.7 mph N/A   Overcast
11:55 AM 54.0 °F 50.2 °F 87% 30.03 in 10.0 mi NNW 10.4 mph 17.3 mph N/A   Overcast
11:56 AM 54.0 °F 50.2 °F 87% 30.03 in 10.0 mi NNW 8.1 mph 17.3 mph N/A   Overcast
12:19 PM 55.9 °F 50.9 °F 83% 30.04 in 10.0 mi NNW 12.7 mph 18.4 mph N/A   Overcast
12:37 PM 57.4 °F 51.1 °F 79% 30.04 in 10.0 mi NNW 12.7 mph 20.7 mph N/A   Overcast
12:55 PM 59.7 °F 51.4 °F 74% 30.04 in 10.0 mi NW 12.7 mph 18.4 mph N/A   Overcast
12:56 PM 59.9 °F 51.3 °F 73% 30.04 in 10.0 mi NW 13.8 mph 20.7 mph N/A   Overcast
1:15 PM 60.8 °F 50.5 °F 69% 30.04 in 10.0 mi NW 12.7 mph 23.0 mph N/A   Scattered Clouds
1:35 PM 61.9 °F 50.5 °F 66% 30.04 in 10.0 mi NNW 16.1 mph 25.3 mph N/A   Clear
1:58 PM 62.6 °F 49.8 °F 63% 30.04 in 10.0 mi NNW 16.1 mph 23.0 mph N/A   Clear
2:16 PM 64.2 °F 50.7 °F 61% 30.05 in 10.0 mi NNW 11.5 mph 20.7 mph N/A   Clear
2:35 PM 64.0 °F 49.8 °F 60% 30.05 in 10.0 mi North 17.3 mph 24.2 mph N/A   Clear
2:36 PM 64.0 °F 49.3 °F 59% 30.05 in 10.0 mi NNW 12.7 mph 24.2 mph N/A   Clear
2:55 PM 63.7 °F 48.6 °F 58% 30.05 in 10.0 mi NNW 13.8 mph 21.9 mph N/A   Clear
3:19 PM 64.8 °F 48.4 °F 55% 30.06 in 10.0 mi NW 9.2 mph 19.6 mph N/A   Clear
3:37 PM 64.8 °F 47.8 °F 54% 30.06 in 10.0 mi NW 10.4 mph 19.6 mph N/A   Clear
3:55 PM 65.7 °F 48.4 °F 54% 30.06 in 10.0 mi NNW 6.9 mph 17.3 mph N/A   Clear
4:15 PM 65.3 °F 46.6 °F 51% 30.06 in 10.0 mi NW 9.2 mph - N/A   Clear
4:16 PM 65.3 °F 46.6 °F 51% 30.06 in 10.0 mi NNW 9.2 mph - N/A   Clear
4:35 PM 65.8 °F 46.2 °F 49% 30.06 in 10.0 mi NNW 10.4 mph - N/A   Clear
4:57 PM 66.6 °F 45.5 °F 47% 30.06 in 10.0 mi NNW 10.4 mph 16.1 mph N/A   Clear
5:16 PM 66.7 °F 47.3 °F 50% 30.06 in 10.0 mi NW 6.9 mph - N/A   Clear
5:35 PM 64.8 °F 48.2 °F 55% 30.06 in 10.0 mi West 6.9 mph - N/A   Clear
5:36 PM 64.8 °F 48.2 °F 55% 30.06 in 10.0 mi West 5.8 mph - N/A   Clear
5:55 PM 65.7 °F 49.5 °F 56% 30.07 in 10.0 mi West 6.9 mph - N/A   Clear
5:56 PM 65.5 °F 50.0 °F 57% 30.07 in 10.0 mi WSW 8.1 mph - N/A   Clear
6:19 PM 62.8 °F 49.3 °F 61% 30.07 in 10.0 mi West 5.8 mph - N/A   Clear
6:37 PM 61.7 °F 50.0 °F 65% 30.07 in 10.0 mi West 4.6 mph - N/A   Clear
6:55 PM 60.1 °F 48.9 °F 67% 30.07 in 10.0 mi WSW 5.8 mph - N/A   Clear
6:56 PM 60.1 °F 49.1 °F 67% 30.07 in 10.0 mi WSW 6.9 mph - N/A   Clear
7:15 PM 59.0 °F 49.3 °F 70% 30.07 in 10.0 mi WSW 6.9 mph - N/A   Clear
7:16 PM 59.0 °F 49.3 °F 70% 30.07 in 10.0 mi WSW 8.1 mph - N/A   Clear
7:35 PM 58.3 °F 48.4 °F 70% 30.07 in 10.0 mi WSW 5.8 mph - N/A   Clear
7:57 PM 57.7 °F 47.8 °F 70% 30.07 in 10.0 mi WSW 6.9 mph - N/A   Clear
8:16 PM 58.1 °F 48.0 °F 69% 30.08 in 10.0 mi WSW 6.9 mph - N/A   Clear
8:35 PM 57.6 °F 46.2 °F 66% 30.08 in 10.0 mi WSW 5.8 mph - N/A   Clear
8:36 PM 57.6 °F 46.0 °F 65% 30.08 in 10.0 mi WSW 5.8 mph - N/A   Clear
8:55 PM 56.5 °F 45.9 °F 68% 30.09 in 10.0 mi WSW 3.5 mph - N/A   Clear
8:56 PM 56.3 °F 45.9 °F 68% 30.09 in 10.0 mi WSW 3.5 mph - N/A   Clear
9:18 PM 55.4 °F 46.4 °F 72% 30.10 in 10.0 mi Calm Calm - N/A   Clear
9:37 PM 54.9 °F 46.4 °F 73% 30.10 in 10.0 mi Calm Calm - N/A   Clear
9:55 PM 54.1 °F 46.8 °F 76% 30.10 in 10.0 mi Calm Calm - N/A   Clear
10:15 PM 54.3 °F 46.4 °F 75% 30.10 in 10.0 mi Calm Calm - N/A   Clear
10:35 PM 52.2 °F 46.4 °F 81% 30.10 in 10.0 mi Calm Calm - N/A   Clear
10:40 PM 51.3 °F 46.4 °F 83% 30.10 in 10.0 mi Calm Calm - N/A   Clear
10:58 PM 50.4 °F 47.3 °F 89% 30.10 in 10.0 mi Calm Calm - N/A   Clear
11:16 PM 48.7 °F 46.9 °F 93% 30.10 in 10.0 mi Calm Calm - N/A   Scattered Clouds
11:35 PM 54.5 °F 47.8 °F 78% 30.12 in 10.0 mi WSW 9.2 mph 17.3 mph N/A   Scattered Clouds
11:55 PM 53.2 °F 48.6 °F 84% 30.11 in 10.0 mi Calm Calm - N/A   Scattered Clouds